Flag for Gibraltar Weather past 2 weeks in Gibraltar, Gibraltar

Now
66 °F

Broken clouds.


Feels Like: 66 °F
Forecast: 59 / 65 °F
Wind: 12 mph from West

Location: Gibraltar Airport


UV Index: 5 (Moderate)

Visibility: N/A


Pressure: 29.71 "Hg

Humidity: 73%

Dew point: 57 °F

Location of GibraltarLocation

Historic Weather in Gibraltar

°F

Gibraltar temperature yesterday

Maximum temperature yesterday: 66 °F (at 12:50 PM)
Minimum temperature yesterday: 63 °F (at 12:50 AM)
Average temperature yesterday: 64 °F

Past Weeks' High & Low Weather Summary

 TemperatureHumidityPressure
High73 °F (Apr 18, 4:50 PM)100% (Apr 6, 9:50 PM)30.21 "Hg (Apr 6, 9:50 PM)
Low57 °F (Apr 6, 8:50 AM)38% (Apr 8, 1:50 PM)29.71 "Hg (Apr 20, 5:50 PM)
Average63 °F77%30.02 "Hg
* Reported Apr 5 5:50 PM — Apr 20 5:50 PM, Gibraltar, Weather by CustomWeather, © 2014

Note: Actual official high and low records may vary slightly from our data, if they occured in-between our weather recording intervals... More about our weather records

Advertising

Historic Weather Conditions — Data for Previous 24 hours

 ConditionsComfort  
Time TempWeatherWind HumidityBarometerVisibility
5:50 PM
Apr 20
66 °FBroken clouds.12 mph73%29.71 "HgN/A
4:50 PM61 °FBroken clouds.8 mph83%29.74 "HgN/A
3:50 PM59 °FSprinkles. Broken clouds.7 mph88%29.77 "Hg6 mi
2:50 PM61 °FThunderstorms. Broken clouds.9 mph88%29.77 "Hg1 mi
1:50 PM64 °FSprinkles. Broken clouds.14 mph73%29.80 "Hg6 mi
12:50 PM66 °FBroken clouds.16 mph64%29.77 "HgN/A
11:50 AM64 °FPartly sunny.13 mph73%29.77 "HgN/A
10:50 AM63 °FPartly sunny.12 mph73%29.77 "HgN/A
9:50 AM61 °FBroken clouds.9 mph83%29.80 "HgN/A
8:50 AM61 °FSprinkles. Broken clouds.12 mph83%29.80 "HgN/A
7:50 AM61 °FPartly cloudy.14 mph77%29.80 "HgN/A
6:50 AM61 °FPartly cloudy.15 mph83%29.77 "HgN/A
5:50 AM61 °FPassing clouds.14 mph83%29.77 "HgN/A
4:50 AM61 °FPassing clouds.12 mph83%29.80 "HgN/A
3:50 AM63 °FPassing clouds.12 mph73%29.83 "HgN/A
2:50 AM63 °FPassing clouds.10 mph73%29.83 "HgN/A
1:50 AM63 °FPassing clouds.12 mph73%29.86 "HgN/A
12:50 AM63 °FClear.20 mph68%29.86 "HgN/A
11:50 PM
Apr 19
63 °FClear.18 mph68%29.86 "HgN/A
10:50 PM63 °FPassing clouds.16 mph68%29.86 "HgN/A
9:50 PM63 °FPassing clouds.20 mph68%29.86 "HgN/A
8:50 PM63 °FPassing clouds.16 mph68%29.83 "HgN/A
7:50 PM64 °FPassing clouds.12 mph68%29.83 "HgN/A
6:50 PM66 °FScattered clouds.12 mph60%29.83 "HgN/A
Weather by CustomWeather, © 2014

See weather overview